Content
SEND FEEDBACK

Daily
Averages
Monthly
Summary
Italy

REGGIO DI CALABRIA, ITALY


Home > Europe > Italy
Elevation: 69 feet     Latitude: 38 04N     Longitude: 015 39E

WEATHER
 
SELECT A DAY
Number of Records: 117,197;   Date Range: 7/1/96 - 7/9/14
 
SHARE

PRINT THIS DATA

[ ← Previous Day ]
WEATHER ALMANAC - JULY 13, 2013
[ Next Day → ]
[ °C ]   °F
Weather ElementAverageHighLow
Temperature80.2 °F87 °F (5:00 pm)75 °F (2:00 am)
Dewpoint66.6 °F69.8 °F (8:50 am)59 °F (11:50 pm)
Humidity61.3 %78 % (6:50 am)33 % (5:00 pm)
Barometer30.00 in30.02 in (11:00 am)29.98 in (4:50 pm)
Wind Speed17 mph38 mph (11:00 am)
Weather ElementAverage
Visibility8.3 mi
Wind DirectionNNW (323.1 °)

Weather ElementTotal
Precipitation---
Cooling Degree Days16 (Base 65)
Growing Degree Days31 (Base 50)
Averaged from 26 records on July 13, 2013
WEATHER CONDITIONS BREAKOUT
WIND DIRECTION BREAKOUT
WEATHER BY HOUR - JULY 13, 2013
[ °C ]   °F
Local TimeTemperatureDewpointHumidityBarometerVisibilityWind DirectionWind SpeedGust SpeedPrecipitationEventsConditions
2:00 AM75.0 °F62.0 °F54 %30.01 inNorth (350°)11.5 mph
5:50 AM75.2 °F66.2 °F73 %30.01 in6.2 miNorth (350°)12.7 mphPartly Cloudy
6:50 AM75.2 °F68.0 °F78 %30.01 inNorth (360°)13.8 mphClear
7:50 AM77.0 °F68.0 °F74 %30.01 in6.2 miNorth (350°)15.0 mphPartly Cloudy
8:00 AM78.0 °F68.0 °F63 %30.01 in16.0 miNorth (350°)13.8 mphScattered Clouds
8:50 AM78.8 °F69.8 °F74 %30.01 in6.2 miNNW (340°)15.0 mphPartly Cloudy
9:50 AM80.6 °F68.0 °F65 %30.01 in6.2 miNorth (350°)18.4 mphPartly Cloudy
10:50 AM80.6 °F68.0 °F65 %30.01 in6.2 miNNW (340°)19.6 mphPartly Cloudy
11:00 AM81.0 °F69.0 °F58 %30.02 in16.0 miNNW (340°)38.0 mphScattered Clouds
11:50 AM82.4 °F68.0 °F62 %30.01 in6.2 miNNW (340°)17.3 mphPartly Cloudy
12:50 PM82.4 °F68.0 °F62 %30.01 in6.2 miNNW (340°)19.6 mphPartly Cloudy
1:50 PM84.2 °F68.0 °F58 %30.01 in6.2 miNorth (350°)18.4 mphPartly Cloudy
2:00 PM84.0 °F68.0 °F49 %30.01 in16.0 miNorth18.4 mphScattered Clouds
2:50 PM86.0 °F68.0 °F55 %30.01 in6.2 miNorth (360°)17.3 mphPartly Cloudy
3:50 PM86.0 °F66.2 °F51 %30.01 in6.2 miNorth (350°)17.3 mphPartly Cloudy
4:50 PM86.0 °F62.6 °F45 %29.98 in6.2 miNorth (360°)15.0 mphPartly Cloudy
5:00 PM87.0 °F62.0 °F33 %30.00 inNorth (350°)29.1 mph
5:50 PM84.2 °F66.2 °F55 %29.98 inNorth (350°)12.7 mphClear
6:50 PM80.6 °F66.2 °F61 %29.98 inNorth (350°)16.1 mphClear
7:50 PM78.8 °F68.0 °F69 %29.98 inNorth (350°)13.8 mphClear
8:00 PM79.0 °F68.0 °F61 %29.99 inNorth (350°)12.7 mph
8:50 PM77.0 °F69.8 °F78 %29.98 inNorth (350°)15.0 mphClear
9:50 PM77.0 °F68.0 °F74 %30.01 inNorth (360°)16.1 mphClear
10:50 PM77.0 °F64.4 °F65 %30.01 inNorth (360°)11.5 mphClear
11:00 PM77.0 °F64.0 °F56 %30.02 inNorth22.4 mph
11:50 PM75.2 °F59.0 °F57 %30.01 inNorth (350°)11.5 mphClear
Hourly data recorded from LICR, located miles away from Reggio di Calabria, Italy







STORIES FROM OUR PARTNERS